Regional Weather Roundup
Issued by NWS Upton, NY

Current Version | Previous Version | Graphics & Text | Print | Product List | Glossary Off
Versions: 1 2 3 4 5 6 7 8 9 10 11 12 13 14 15 16 17 18 19 20 21 22 23 24 25 26 27 28 29 30 31 32 33 34 35 36 37 38 39 40 41 42 43 44 45 46 47 48 49 50

000
ASUS41 KOKX 080108
RWROKX

REGIONAL WEATHER ROUNDUP
NATIONAL WEATHER SERVICE NEW YORK NY
900 PM EDT TUE JUL 07 2015

NOTE: "FAIR" INDICATES FEW OR NO CLOUDS BELOW 12,000 FEET WITH NO
SIGNIFICANT WEATHER AND/OR OBSTRUCTIONS TO VISIBILITY.

NYZ071-072-176-178-NJZ106-104-080200-
NEW YORK CITY METRO AREA


CITY           SKY/WX    TMP DP  RH WIND       PRES   REMARKS
CENTRAL PARK   CLEAR     82  68  62 CALM      29.98S
LAGUARDIA APRT PTCLDY    84  67  56 SW6       29.95R
KENNEDY INTL   MOCLDY    78  69  73 S8        29.97R
NEWARK/LIBERTY PTCLDY    83  70  64 SW7       29.95R
BRNX BOT. GARD   N/A     82  68  61 W2        29.96F
TETERBORO      CLEAR     81  68  64 S5        29.94R
$$

NYZ177-179-078>081-080200-
LONG ISLAND NEW YORK

CITY           SKY/WX    TMP DP  RH WIND       PRES   REMARKS
FARMINGDALE    PTCLDY    78  71  79 SW10      29.97R
ISLIP          MOCLDY    76  71  85 SW10      29.97R
SHIRLEY        MOCLDY    75  71  87 SW6       29.99S
WESTHAMPTON    PTCLDY    74  73  97 SW9       30.00R
MONTAUK POINT    N/A     73  71  93 S8        30.00S
$$

NYZ052-065-067-080200-
HUDSON VALLEY

CITY           SKY/WX    TMP DP  RH WIND       PRES   REMARKS
WHITE PLAINS   PTCLDY    74  71  91 CALM      29.97R
NEWBURGH       PTCLDY    77  72  83 W6        29.96S
MONTGOMERY     PTCLDY    76  70  82 SW7       29.95R
POUGHKEEPSIE   MOCLDY    77  73  87 SE3       29.93R
ALBANY         MOCLDY    77  70  79 S6        29.91R
$$

NJZ001-105-106-008-010-013-015-019>022-104-080200-
NEW JERSEY

CITY           SKY/WX    TMP DP  RH WIND       PRES   REMARKS
NEWARK/LIBERTY PTCLDY    83  70  64 SW7       29.95R
TETERBORO      CLEAR     81  68  64 S5        29.94R
CALDWELL       CLEAR     82  68  62 SW3       29.96R
MORRISTOWN     PTCLDY    84  70  61 SW6       29.97R
SOMERVILLE     CLEAR     76  71  85 CALM      29.95R
SUSSEX         PTCLDY    73  70  90 CALM      29.97R
ANDOVER          N/A     73  72  96 CALM      29.98R
TRENTON        CLEAR     79  69  71 SW3       29.96R
MILLVILLE      CLEAR     80  71  74 CALM      30.00R
ATLANTIC CITY  PTCLDY    80  73  79 S7        29.99S
WRIGHTSTOWN    CLEAR     78  70  75 SW8       29.96R
TOMS RIVER     CLEAR     79  73  83 S5        29.98R
BELMAR         CLEAR     81  70  69 SW6       29.98R
$$

PAZ047>061-062-071-080200-
EASTERN PENNSYLVANIA

CITY           SKY/WX    TMP DP  RH WIND       PRES   REMARKS
PHILADELPHIA   PTCLDY    85  70  60 SW10      29.98R
ALLENTOWN      PTCLDY    80  68  66 SW6       29.97R
SCRANTON       CLEAR     78  66  66 S3        29.97R
$$

CTZ002-004>006-009-010-012-RIZ004-006-007-MAZ004-011-015-080200-
SOUTHERN NEW ENGLAND
 IN CT

CITY           SKY/WX    TMP DP  RH WIND       PRES   REMARKS
BRADLEY INTL   CLOUDY    74  71  91 S5        29.94S
HARTFORD       CLOUDY    77  72  84 S6        29.95S
DANBURY        MOCLDY    71  32  23 CALM      29.98S
WTRBRY/OXFORD  PTCLDY    72  64  78 CALM      29.99F
BRIDGEPORT     MOCLDY    79  72  79 S7        29.96F
MERIDEN        LGT RAIN  74  69  85 S5        29.97S
NEW HAVEN      MOCLDY    75  71  87 CALM      29.97S
CHESTER        CLOUDY    73  72  94 S6        30.00S FOG
GROTON         CLOUDY    72  70  93 SW8       29.98R
WILLIMANTIC    CLOUDY    77  71  82 S7        29.98R

 IN RI

CITY           SKY/WX    TMP DP  RH WIND       PRES   REMARKS
PROVIDENCE     CLOUDY    76  70  82 SW9G20    29.99R
BLOCK ISLAND   CLOUDY    72  70  94 SW15      29.99S
WESTERLY       CLOUDY    73  71  93 SW8       30.00S

 IN MA

CITY           SKY/WX    TMP DP  RH WIND       PRES   REMARKS
BOSTON         MOCLDY    77  70  79 SW14      29.95S
WORCESTER      CLOUDY    75  69  81 SW15      29.99S
WESTFIELD      MOCLDY    73  68  84 S10       29.95R
PROVINCETOWN   MOCLDY    72  66  83 S12       29.99S
NANTUCKET      CLOUDY    70  68  93 S10       30.02S FOG
$$

ANZ330-335-338-340-345-350-353-355-080200-
COASTAL MARINE OBSERVATIONS


STATION/POSITION TIME  SKY/WX   TEMP    WIND        PRES    VSBY  WAVE
                                AIR SEA DIR/SP/G                  HT/PER
                 (UTC)          (F)     (DEG/KT/KT) (MB)    (MI)  (FT/S)
NY HARB ENTRANCE 0050            75 73  200/ 14/ 16 1014.1          4/ 5
4S FIRE IS       0003               72                N/A           4/ 5
20S FIRE ISLAND  0050            74 71  200/ 16/ 19 1014.7          4/ 5
GREAT SOUTH BAY  0000            76 78  220/ 14/ 19   N/A
23SW MTP         0050            72 69  210/ 16/ 19 1015.1          3/ 4
HUDSON CANYON    NOT AVBL
KINGS POINT      0000            84 71  240/ 13/ 16 1013.3
CENTRAL LI SOUND NOT AVBL
EASTERN LI SOUND 0000            69 64  210/  6/  6   N/A
ROBBINS REEF     0000            83     230/ 11/ 15 1013.0
$$


>>>>>>>>>>>>>>>>>>>>>>>>>>>> KEY <<<<<<<<<<<<<<<<<<<<<<<<<<<
>                                                          <
>     SKY/WX - SKY CONDITION/PRESENT WEATHER               <
>     TMP    - TEMPERATURE IN FAHRENHEIT                   <
>     DP     - DEWPOINT IN FAHRENHEIT                      <
>     RH     - RELATIVE HUMIDITY IN PERCENT                <
>     WIND   - DIRECTION AND SPEED IN MPH                  <
>     PRES   - MEAN SEA LEVEL PRESSURE IN INCHES OF HG     <
>     WCI    - WIND CHILL INDEX                            <
>     VSB    - VISIBILITY IN MILES                         <
>     HX     - HEAT INDEX                                  <
>     TC     - TEMPERATURE IN CELSIUS                      <
>     VRB    - VARIABLE WIND DIRECTION                     <
>                                                          <
>>>>>>>>>>>>>>>>>>>>>>>>>>>> KEY <<<<<<<<<<<<<<<<<<<<<<<<<<<




USA.gov is the U.S. government's official web portal to all federal, state and local government web resources and services.